Vorticity
nan nan nan nan nan nan nan nan nan nan nan nan nan nan nan nan nan nan nan nan nan nan nan nan nan nan nan nan nan nan nan nan nan nan nan nan nan nan nan nan nan nan nan nan nan nan nan nan nan nan nan nan nan nan
nan 10 10 10 10 10 10 10 10 9 10 9 8 8 11 21 25 10 7 13 11 8 9 13 13 9 9 -1 3 8 10 10 14 14 11 11 12 13 13 8 12 11 8 10 11 2 14 14 7 7 5 10 17 nan
nan 10 11 10 10 10 10 9 10 9 9 9 9 8 9 9 19 16 8 10 10 11 15 17 19 18 19 17 1 0 9 11 8 10 12 12 10 13 15 12 9 11 15 13 14 11 8 8 3 17 14 12 17 nan
nan 10 11 10 9 9 9 9 9 10 10 10 9 8 8 10 12 13 11 10 9 9 10 11 13 18 19 29 18 1 -1 10 9 9 11 10 12 10 8 12 11 17 16 11 4 14 16 10 9 12 14 17 20 nan
nan 10 10 10 9 9 9 9 9 10 11 11 11 10 10 11 13 17 15 15 10 6 7 8 13 21 21 22 22 10 4 8 9 12 12 10 9 10 10 11 14 9 12 10 11 13 13 12 15 14 16 16 14 nan
nan 10 9 9 10 9 9 9 9 10 11 11 12 12 13 14 18 15 16 17 14 9 7 10 14 20 26 18 14 9 4 8 9 10 10 11 11 10 11 9 9 10 11 7 11 13 4 13 23 17 13 16 16 nan
nan 10 9 10 10 10 9 9 9 10 11 11 11 13 17 24 20 7 8 14 15 6 8 10 13 16 10 8 10 10 11 12 10 9 10 10 11 12 12 6 -0 8 14 18 14 7 12 16 18 17 17 13 12 nan
nan 10 10 10 10 10 9 10 10 10 11 11 11 18 27 23 10 10 21 17 2 6 10 11 14 15 9 7 10 11 10 11 11 10 12 11 11 14 7 1 3 8 17 16 18 13 7 18 21 19 19 16 11 nan
nan 10 10 10 10 10 10 10 11 12 12 15 21 26 21 12 6 9 21 14 3 9 10 11 12 15 11 7 10 11 13 13 11 11 12 11 10 8 4 3 8 14 13 12 22 25 20 18 15 14 12 8 7 nan
nan 10 9 10 11 11 12 11 12 12 18 25 23 15 10 3 8 17 13 8 12 10 10 10 9 11 12 9 11 9 10 11 12 13 11 11 10 9 4 8 13 11 11 22 22 14 20 20 17 15 9 8 15 nan
nan 9 10 10 11 12 13 14 13 18 21 14 11 10 7 13 19 13 9 11 11 11 11 10 10 12 13 9 11 11 9 9 12 15 10 9 8 6 7 13 14 15 17 19 18 18 18 16 15 14 14 16 18 nan
nan 10 10 10 11 12 18 21 18 16 11 10 10 12 13 14 13 12 12 13 10 13 12 9 14 12 10 12 12 10 8 13 12 11 14 10 3 2 9 12 14 15 16 17 23 22 15 14 13 12 12 13 15 nan
nan 9 10 10 12 16 20 22 16 12 13 13 12 10 12 12 11 14 12 9 10 10 8 9 13 14 13 12 12 14 9 5 11 15 14 10 6 5 10 14 16 16 15 12 14 16 15 13 15 12 10 13 13 nan
nan 9 10 12 17 16 16 15 14 16 13 11 11 12 12 10 11 10 8 9 12 8 8 15 14 10 11 11 13 13 12 14 12 10 10 7 6 12 14 15 12 11 14 12 12 14 14 14 14 13 15 14 12 nan
nan 10 18 18 13 11 12 11 15 15 12 12 12 13 11 7 11 11 11 12 11 9 13 15 13 10 12 12 11 14 10 10 13 13 11 6 8 13 12 13 12 13 11 12 13 13 15 14 11 13 14 14 13 nan
nan 23 21 8 5 9 14 16 17 11 11 12 10 12 12 11 12 11 10 10 10 13 15 10 11 13 10 12 12 12 11 13 13 11 11 11 10 11 12 11 9 9 12 11 11 14 16 16 15 11 13 14 13 nan
nan 20 4 1 5 15 22 17 12 11 10 11 11 12 10 12 13 12 12 11 9 11 13 14 11 11 14 13 12 11 14 16 13 10 8 8 9 10 10 10 11 11 13 13 10 12 16 19 20 16 11 12 13 nan
nan 3 1 6 14 20 17 12 11 12 12 12 11 13 12 11 13 12 12 11 10 14 11 9 12 13 12 12 11 12 13 12 10 9 7 7 9 11 10 9 11 11 10 11 12 10 11 18 14 11 15 14 13 nan
nan 4 7 17 22 15 13 13 11 12 13 12 13 12 11 12 12 13 14 12 10 9 12 14 14 13 11 9 11 14 13 11 10 8 8 7 8 8 9 9 9 8 10 11 12 13 12 11 11 15 17 12 10 nan
nan 17 24 30 17 6 11 12 11 11 12 12 14 12 12 13 13 14 13 13 12 12 12 9 11 10 10 12 13 13 13 12 11 10 8 5 5 7 9 11 9 10 11 11 11 11 13 14 14 13 11 13 15 nan
nan 20 15 18 11 10 11 13 12 11 11 12 13 12 11 13 13 13 14 11 9 9 13 13 11 9 8 10 13 12 12 10 8 9 9 8 7 8 9 10 11 11 11 11 10 10 10 9 11 15 14 14 13 nan
nan 11 13 12 11 12 11 13 9 12 13 13 13 11 12 13 14 14 12 10 12 14 12 12 13 12 9 8 10 9 8 7 6 9 10 9 6 9 11 10 10 10 11 11 11 10 10 10 11 13 16 17 16 nan
nan 13 13 11 12 11 13 13 13 11 11 12 13 12 13 11 13 13 10 10 12 15 14 12 16 16 14 12 11 9 9 8 8 10 10 9 11 11 10 10 9 9 11 13 11 11 11 11 14 17 17 13 12 nan
nan 11 14 13 11 9 14 12 12 11 13 13 11 11 12 16 14 10 11 12 13 15 18 18 17 13 15 15 13 13 12 11 11 12 12 11 11 12 11 10 10 12 12 12 14 12 13 15 18 18 13 11 13 nan
nan 15 12 12 13 13 12 13 13 11 10 12 13 12 14 12 9 11 13 10 10 13 16 25 24 16 13 12 13 16 14 12 11 11 12 11 9 11 12 13 12 14 14 13 12 12 14 19 21 19 17 16 15 nan
nan 15 10 11 14 12 10 12 12 12 13 12 12 12 12 14 12 10 9 10 13 11 14 20 19 14 14 16 16 16 16 14 12 12 14 14 11 9 10 12 13 14 14 16 14 12 14 16 16 15 15 19 20 nan
nan 14 12 11 10 12 14 13 11 12 12 11 12 14 14 12 11 14 12 11 11 8 10 14 15 16 16 15 14 17 21 20 15 13 16 18 18 17 15 15 13 13 17 15 13 15 15 16 16 14 14 15 16 nan
nan 14 13 10 14 12 10 12 12 13 13 14 12 13 13 12 12 14 13 9 10 14 13 10 12 14 16 15 15 14 15 16 16 16 13 12 15 19 18 15 16 15 15 15 16 15 14 13 13 12 13 13 12 nan
nan 13 12 12 14 13 12 12 12 14 13 13 14 12 12 12 11 11 9 10 16 17 13 12 12 14 15 14 13 13 14 16 14 9 9 11 10 9 14 13 11 13 13 7 12 22 18 12 10 10 10 10 9 nan
nan 14 10 14 12 13 15 12 11 13 14 15 14 12 11 13 12 11 10 11 14 18 17 15 12 11 13 14 12 13 15 13 14 15 13 10 10 10 12 16 15 14 12 11 9 13 13 11 9 11 14 14 11 nan
nan 13 13 12 11 12 13 13 15 13 14 12 12 13 12 12 17 13 11 11 12 15 15 14 15 14 13 12 13 13 12 14 14 14 15 12 11 11 13 13 12 13 13 13 13 11 9 11 15 16 13 13 16 nan
nan 11 12 13 12 11 13 17 15 11 11 10 13 13 13 12 13 12 13 13 13 12 10 12 13 14 16 15 14 14 17 19 17 18 9 7 10 9 13 14 14 13 13 11 9 7 8 13 16 15 12 11 11 nan
nan nan nan nan nan nan nan nan nan nan nan nan nan nan nan nan nan nan nan nan nan nan nan nan nan nan nan nan nan nan nan nan nan nan nan nan nan nan nan nan nan nan nan nan nan nan nan nan nan nan nan nan nan nan
CAPE
2 1 3 2 2 4 8 5 4 23 19 28 29 45 59 74 88 106 75 17 36 29 14 9 1 7 9 25 0 4 11 11 9 0 2 0 0 0 0 0 0 0 0 0 0 0 0 0 0 0 460 65 264 1031
1 1 2 1 2 4 4 6 3 31 42 40 35 25 40 65 69 99 48 62 36 35 12 1 0 0 0 0 0 0 9 0 0 0 0 0 0 4 0 0 0 0 0 0 0 0 61 0 0 50 170 499 792 1435
0 1 1 1 0 1 2 3 3 21 35 38 35 32 41 41 57 104 59 22 28 35 1 3 0 0 0 0 0 10 7 0 0 0 0 0 0 7 0 0 0 0 0 0 0 0 0 0 0 0 0 303 935 1411
0 0 0 0 0 0 0 1 1 15 33 30 23 25 37 53 75 55 40 34 15 19 12 0 0 0 0 0 0 0 3 0 0 0 0 0 0 0 32 0 0 0 0 0 0 0 0 0 1 2 218 231 840 1499
0 0 0 0 0 0 0 0 0 2 19 20 29 39 39 42 81 64 18 0 5 2 13 0 0 0 0 0 0 0 9 31 16 1 16 1 0 0 0 0 199 0 0 0 0 0 0 181 140 111 814 1021 1458 2001
0 0 0 0 1 1 0 0 0 1 2 5 27 29 49 88 54 2 0 0 0 0 2 1 0 0 1 0 1 22 26 12 16 16 23 2 0 0 56 336 1 0 0 0 18 0 0 5 69 477 1258 1482 1783 1914
0 0 0 0 1 0 0 0 0 1 2 0 9 17 21 29 12 0 0 0 0 0 6 4 0 3 68 53 47 41 19 13 20 23 25 0 0 0 140 244 0 0 0 0 2 109 248 293 416 486 1303 1490 1422 1477
0 0 0 0 0 0 0 0 0 2 1 0 1 1 0 0 1 3 0 0 0 0 0 9 1 0 12 51 52 25 17 21 20 15 2 0 0 0 295 10 0 0 0 0 57 459 294 663 1246 1349 1583 1518 1564 1646
0 0 0 0 1 1 1 1 4 7 5 1 0 0 0 0 0 0 0 0 0 0 11 15 8 33 11 45 16 39 2 2 2 1 0 0 0 57 0 0 0 0 0 0 248 1015 674 1184 1613 1642 1582 1539 1528 1589
0 0 0 0 1 1 1 2 4 8 1 0 0 0 0 0 0 0 3 0 6 3 0 6 0 0 0 4 35 15 7 1 0 0 0 0 0 0 0 0 21 22 0 0 1457 1401 1407 1560 1634 1616 1619 1683 1635 1527
0 0 0 0 0 0 0 9 9 6 0 0 0 0 0 0 0 0 0 3 0 0 0 0 0 0 0 53 18 31 10 17 8 4 0 0 85 21 1 48 152 182 0 1 211 847 1326 1482 1514 1472 1427 1427 1348 1329
0 0 0 0 0 0 0 4 4 0 0 0 1 1 1 0 0 0 0 0 0 0 0 0 0 0 0 0 96 40 11 57 45 0 0 15 22 0 0 12 85 255 1 8 504 1255 1363 1344 1219 1115 1081 1174 1129 1098
0 0 0 0 0 0 0 0 0 7 0 0 2 1 2 0 0 0 0 0 0 2 22 0 5 0 0 0 3 32 14 57 5 0 31 2 1 0 0 5 295 336 10 4 45 1062 1257 1234 1131 1109 1020 959 923 811
0 0 0 0 0 0 0 0 0 0 0 0 1 0 0 0 0 0 0 0 0 0 0 0 0 0 0 0 0 12 32 17 4 18 3 4 6 1 1 7 249 535 504 212 74 157 977 1281 1194 1011 978 979 958 1039
0 0 0 0 0 0 0 0 0 0 0 0 4 0 0 0 0 0 0 0 0 0 0 0 0 0 0 0 0 0 0 0 0 0 1 16 2 4 2 3 31 239 546 670 390 93 509 1089 1200 1024 912 922 971 888
0 0 0 0 0 0 0 0 0 0 0 1 4 2 0 0 0 0 0 0 0 0 0 0 0 0 0 0 0 0 0 2 9 32 26 16 2 0 0 3 3 4 18 285 562 355 272 249 1085 1155 907 845 714 646
0 0 0 0 0 0 1 7 3 2 5 3 3 0 0 0 0 0 0 0 0 0 0 0 0 0 0 0 0 0 0 0 109 56 6 0 0 0 0 0 0 6 5 2 151 493 617 601 897 1067 1086 761 703 646
1 0 0 0 7 9 12 8 2 5 5 4 1 0 3 0 0 0 0 0 0 0 0 0 0 0 0 0 0 0 0 52 37 0 1 0 0 0 0 0 0 2 9 121 231 406 398 731 926 902 840 400 131 255
0 0 0 4 15 6 8 4 4 4 3 4 2 2 3 2 0 0 0 0 0 0 0 0 0 0 0 0 0 0 38 74 33 0 0 0 0 0 0 0 0 0 0 25 132 366 483 303 344 745 437 221 296 65
0 0 0 0 3 4 4 6 1 4 4 1 5 4 4 2 3 3 3 0 0 2 9 2 0 0 0 0 0 0 55 7 0 0 0 0 0 0 0 0 0 0 0 0 44 3 197 673 712 346 236 162 112 19
0 0 1 0 8 6 5 4 6 3 2 5 4 3 2 6 4 6 7 3 8 6 2 0 0 0 0 0 0 10 11 0 0 0 0 0 0 0 0 0 0 0 0 2 4 12 8 113 182 341 301 222 39 15
0 0 11 5 6 4 6 2 4 4 8 4 6 6 5 8 4 4 5 7 6 1 0 0 0 0 0 0 0 0 13 0 0 0 0 0 0 0 0 0 0 0 0 3 8 10 4 4 15 6 17 4 2 4
0 1 8 4 5 2 0 1 7 4 4 2 5 4 3 5 6 3 2 3 0 0 0 0 0 0 0 0 0 0 0 0 0 0 0 0 0 0 0 0 0 0 1 3 6 11 6 1 3 8 4 3 3 3
0 10 9 6 4 1 2 4 4 5 4 6 5 4 5 14 3 3 2 4 0 0 1 0 1 0 0 0 0 0 0 0 0 0 0 0 0 0 0 0 2 4 13 7 6 4 4 6 3 3 2 2 2 2
21 1 1 0 4 14 9 5 4 5 6 10 10 7 14 26 39 27 12 39 20 13 8 4 2 2 1 0 1 0 0 0 0 0 0 0 1 5 2 4 2 1 4 6 4 3 4 4 4 3 2 2 2 2
9 0 1 2 4 3 2 3 2 0 1 5 0 0 1 1 2 2 8 54 26 14 8 5 5 4 5 7 8 6 3 0 0 0 1 2 5 3 4 2 2 2 0 2 1 1 1 3 2 1 2 0 0 2
6 1 1 0 1 2 3 0 1 2 2 3 6 7 0 13 11 7 1 35 45 17 4 7 3 3 5 9 7 7 28 7 8 5 12 6 11 14 12 8 3 0 0 0 0 0 1 2 3 3 3 3 3 4
0 0 0 7 19 8 7 1 9 5 1 0 1 17 15 19 9 23 8 14 17 1 3 0 1 1 3 3 2 2 2 2 3 2 2 1 2 2 0 0 0 0 0 0 0 0 0 0 3 2 2 1 1 0
0 0 2 2 3 6 5 3 26 0 0 4 14 23 20 33 22 10 37 49 56 48 23 1 0 0 0 0 0 0 2 4 2 2 1 2 3 4 1 0 0 0 0 0 0 0 0 0 0 0 0 0 0 0
0 0 0 13 37 47 22 25 8 0 0 7 2 8 3 18 44 26 31 63 21 8 7 27 20 2 0 0 0 0 0 0 0 1 1 1 1 2 0 0 0 0 0 0 0 0 0 0 0 0 0 0 0 0
0 0 1 56 40 4 17 6 0 0 14 3 12 11 5 17 92 101 20 8 12 2 0 0 0 0 0 0 0 4 0 0 0 0 0 0 0 0 0 0 0 0 0 0 0 0 0 0 0 0 0 0 0 0
0 6 43 28 38 7 27 26 47 1 10 2 2 3 49 68 107 31 12 29 27 15 0 0 0 0 0 0 0 0 0 0 0 0 0 0 0 0 0 0 0 0 0 0 0 0 0 0 0 0 0 0 0 0
36 7 72 43 34 51 44 46 43 34 6 5 10 15 55 84 40 22 55 22 7 7 5 0 0 0 0 0 0 0 0 0 0 0 0 0 0 0 0 0 0 0 0 0 0 0 0 0 0 0 0 0 0 0